Time,TemperatureF,DewpointF,PressureIn,WindDirection,WindDirectionDegrees,WindSpeedMPH,WindSpeedGustMPH,Humidity,HourlyPrecipIn,Conditions,Clouds,dailyrainin,SoftwareType,DateUTC
2013-01-20 00:05:00,44.5,31.1,29.95,SSE,159,4.0,5.0,59,0.00,,,0.00,Wunderground v.1.15,2013-01-20 05:05:00,
2013-01-20 00:10:00,44.5,31.1,29.94,SSW,207,5.0,7.0,59,0.00,,,0.00,Wunderground v.1.15,2013-01-20 05:10:00,
2013-01-20 00:15:00,44.5,31.5,29.94,SW,223,6.0,7.0,60,0.00,,,0.00,Wunderground v.1.15,2013-01-20 05:15:00,
2013-01-20 00:20:00,44.5,31.5,29.94,SSW,193,5.0,6.0,60,0.00,,,0.00,Wunderground v.1.15,2013-01-20 05:20:00,
2013-01-20 00:30:00,44.5,31.5,29.94,SSW,211,5.0,5.0,60,0.00,,,0.00,Wunderground v.1.15,2013-01-20 05:30:00,
2013-01-20 00:35:00,44.6,31.6,29.94,SSW,196,5.0,5.0,60,0.00,,,0.00,Wunderground v.1.15,2013-01-20 05:35:00,
2013-01-20 00:40:00,44.4,31.4,29.93,SSW,194,4.0,4.0,60,0.00,,,0.00,Wunderground v.1.15,2013-01-20 05:40:00,
2013-01-20 00:50:00,44.5,31.5,29.93,SSW,200,4.0,4.0,60,0.00,,,0.00,Wunderground v.1.15,2013-01-20 05:50:00,
2013-01-20 00:55:00,44.6,31.6,29.93,SW,215,5.0,5.0,60,0.00,,,0.00,Wunderground v.1.15,2013-01-20 05:55:00,
2013-01-20 01:00:00,44.5,31.5,29.92,SSW,197,5.0,5.0,60,0.00,,,0.00,Wunderground v.1.15,2013-01-20 06:00:00,
2013-01-20 01:05:00,44.5,31.5,29.92,SSW,200,5.0,5.0,60,0.00,,,0.00,Wunderground v.1.15,2013-01-20 06:05:00,
2013-01-20 01:10:00,44.5,31.5,29.92,SSW,202,5.0,6.0,60,0.00,,,0.00,Wunderground v.1.15,2013-01-20 06:10:00,
2013-01-20 01:20:00,44.5,31.5,29.92,SW,218,5.0,5.0,60,0.00,,,0.00,Wunderground v.1.15,2013-01-20 06:20:00,
2013-01-20 01:25:00,44.4,31.4,29.92,SSW,210,6.0,6.0,60,0.00,,,0.00,Wunderground v.1.15,2013-01-20 06:25:00,
2013-01-20 01:30:00,44.4,31.4,29.92,SW,230,6.0,6.0,60,0.00,,,0.00,Wunderground v.1.15,2013-01-20 06:30:00,
2013-01-20 01:35:00,44.4,31.4,29.91,SW,222,7.0,7.0,60,0.00,,,0.00,Wunderground v.1.15,2013-01-20 06:35:00,
2013-01-20 01:40:00,44.4,31.4,29.91,SSW,205,7.0,7.0,60,0.00,,,0.00,Wunderground v.1.15,2013-01-20 06:40:00,
2013-01-20 01:50:00,44.2,31.6,29.91,SW,223,5.0,5.0,61,0.00,,,0.00,Wunderground v.1.15,2013-01-20 06:50:00,
2013-01-20 01:55:00,44.1,31.5,29.91,SSW,194,5.0,6.0,61,0.00,,,0.00,Wunderground v.1.15,2013-01-20 06:55:00,
2013-01-20 02:00:00,44.0,31.4,29.91,SSW,197,5.0,6.0,61,0.00,,,0.00,Wunderground v.1.15,2013-01-20 07:00:00,
2013-01-20 02:05:00,43.9,31.3,29.91,SW,225,5.0,6.0,61,0.00,,,0.00,Wunderground v.1.15,2013-01-20 07:05:00,
2013-01-20 02:10:00,43.9,31.3,29.91,SSW,201,5.0,5.0,61,0.00,,,0.00,Wunderground v.1.15,2013-01-20 07:10:00,
2013-01-20 02:20:00,43.8,31.2,29.91,South,173,4.0,4.0,61,0.00,,,0.00,Wunderground v.1.15,2013-01-20 07:20:00,
2013-01-20 02:25:00,43.8,31.2,29.91,SSW,199,6.0,9.0,61,0.00,,,0.00,Wunderground v.1.15,2013-01-20 07:25:00,
2013-01-20 02:30:00,43.8,31.2,29.91,SSW,196,6.0,6.0,61,0.00,,,0.00,Wunderground v.1.15,2013-01-20 07:30:00,
2013-01-20 02:35:00,43.8,31.2,29.90,SW,227,5.0,6.0,61,0.00,,,0.00,Wunderground v.1.15,2013-01-20 07:35:00,
2013-01-20 02:40:00,43.7,31.1,29.90,SSW,202,5.0,5.0,61,0.00,,,0.00,Wunderground v.1.15,2013-01-20 07:40:00,
2013-01-20 02:50:00,43.6,31.0,29.90,SSW,207,4.0,6.0,61,0.00,,,0.00,Wunderground v.1.15,2013-01-20 07:50:00,
2013-01-20 02:55:00,43.5,30.9,29.90,SW,228,4.0,6.0,61,0.00,,,0.00,Wunderground v.1.15,2013-01-20 07:55:00,
2013-01-20 03:00:00,43.4,31.2,29.89,SSW,205,4.0,8.0,62,0.00,,,0.00,Wunderground v.1.15,2013-01-20 08:00:00,
2013-01-20 03:10:00,43.3,31.1,29.89,SSW,213,5.0,5.0,62,0.00,,,0.00,Wunderground v.1.15,2013-01-20 08:10:00,
2013-01-20 03:15:00,43.2,31.1,29.89,SSW,205,5.0,5.0,62,0.00,,,0.00,Wunderground v.1.15,2013-01-20 08:15:00,
2013-01-20 03:20:00,43.2,31.1,29.89,SSW,211,6.0,6.0,62,0.00,,,0.00,Wunderground v.1.15,2013-01-20 08:20:00,
2013-01-20 03:25:00,43.1,31.0,29.89,SSW,196,6.0,6.0,62,0.00,,,0.00,Wunderground v.1.15,2013-01-20 08:25:00,
2013-01-20 03:30:00,43.0,30.9,29.89,SW,224,5.0,5.0,62,0.00,,,0.00,Wunderground v.1.15,2013-01-20 08:30:00,
2013-01-20 03:40:00,42.8,31.1,29.88,SSW,194,5.0,6.0,63,0.00,,,0.00,Wunderground v.1.15,2013-01-20 08:40:00,
2013-01-20 03:45:00,42.8,31.1,29.88,SSW,193,6.0,6.0,63,0.00,,,0.00,Wunderground v.1.15,2013-01-20 08:45:00,
2013-01-20 03:50:00,42.8,31.1,29.88,SW,226,5.0,5.0,63,0.00,,,0.00,Wunderground v.1.15,2013-01-20 08:50:00,
2013-01-20 03:55:00,42.6,30.9,29.88,SW,232,5.0,7.0,63,0.00,,,0.00,Wunderground v.1.15,2013-01-20 08:55:00,
2013-01-20 04:00:00,42.6,30.9,29.88,SW,216,5.0,5.0,63,0.00,,,0.00,Wunderground v.1.15,2013-01-20 09:00:00,
2013-01-20 04:10:00,42.4,31.1,29.87,SW,218,5.0,5.0,64,0.00,,,0.00,Wunderground v.1.15,2013-01-20 09:10:00,
2013-01-20 04:15:00,42.3,31.0,29.87,SSW,211,5.0,6.0,64,0.00,,,0.00,Wunderground v.1.15,2013-01-20 09:15:00,
2013-01-20 04:20:00,42.1,30.8,29.87,SSW,206,5.0,5.0,64,0.00,,,0.00,Wunderground v.1.15,2013-01-20 09:20:00,
2013-01-20 04:25:00,42.0,30.7,29.86,SSW,204,4.0,6.0,64,0.00,,,0.00,Wunderground v.1.15,2013-01-20 09:25:00,
2013-01-20 04:30:00,42.0,30.7,29.87,South,175,5.0,7.0,64,0.00,,,0.00,Wunderground v.1.15,2013-01-20 09:30:00,
2013-01-20 04:40:00,41.8,30.9,29.86,SW,222,5.0,8.0,65,0.00,,,0.00,Wunderground v.1.15,2013-01-20 09:40:00,
2013-01-20 04:45:00,41.8,30.9,29.86,South,191,6.0,9.0,65,0.00,,,0.00,Wunderground v.1.15,2013-01-20 09:45:00,
2013-01-20 04:50:00,41.6,30.7,29.86,SW,225,6.0,6.0,65,0.00,,,0.00,Wunderground v.1.15,2013-01-20 09:50:00,
2013-01-20 04:55:00,41.5,30.6,29.86,WSW,237,5.0,6.0,65,0.00,,,0.00,Wunderground v.1.15,2013-01-20 09:55:00,
2013-01-20 05:05:00,41.4,30.5,29.86,SSW,209,5.0,5.0,65,0.00,,,0.00,Wunderground v.1.15,2013-01-20 10:05:00,
2013-01-20 05:10:00,41.2,30.7,29.86,SSW,207,4.0,4.0,66,0.00,,,0.00,Wunderground v.1.15,2013-01-20 10:10:00,
2013-01-20 05:15:00,41.1,30.6,29.86,SSW,209,4.0,4.0,66,0.00,,,0.00,Wunderground v.1.15,2013-01-20 10:15:00,
2013-01-20 05:20:00,41.1,30.6,29.86,SW,223,4.0,4.0,66,0.00,,,0.00,Wunderground v.1.15,2013-01-20 10:20:00,
2013-01-20 05:30:00,40.9,30.4,29.86,SSW,196,4.0,4.0,66,0.00,,,0.00,Wunderground v.1.15,2013-01-20 10:30:00,
2013-01-20 05:35:00,40.7,30.6,29.86,SSW,197,3.0,4.0,67,0.00,,,0.00,Wunderground v.1.15,2013-01-20 10:35:00,
2013-01-20 05:40:00,40.6,30.5,29.86,SSW,206,3.0,4.0,67,0.00,,,0.00,Wunderground v.1.15,2013-01-20 10:40:00,
2013-01-20 05:45:00,40.6,30.5,29.85,SSW,192,3.0,7.0,67,0.00,,,0.00,Wunderground v.1.15,2013-01-20 10:45:00,
2013-01-20 05:50:00,40.6,30.5,29.85,SW,214,3.0,3.0,67,0.00,,,0.00,Wunderground v.1.15,2013-01-20 10:50:00,
2013-01-20 06:00:00,40.4,30.3,29.86,SSW,212,3.0,3.0,67,0.00,,,0.00,Wunderground v.1.15,2013-01-20 11:00:00,
2013-01-20 06:05:00,40.3,30.2,29.85,SSW,212,3.0,4.0,67,0.00,,,0.00,Wunderground v.1.15,2013-01-20 11:05:00,
2013-01-20 06:10:00,40.2,30.5,29.85,SSW,196,4.0,4.0,68,0.00,,,0.00,Wunderground v.1.15,2013-01-20 11:10:00,
2013-01-20 06:15:00,40.1,30.4,29.85,SW,232,4.0,4.0,68,0.00,,,0.00,Wunderground v.1.15,2013-01-20 11:15:00,
2013-01-20 06:20:00,40.1,30.4,29.85,SW,231,4.0,5.0,68,0.00,,,0.00,Wunderground v.1.15,2013-01-20 11:20:00,
2013-01-20 06:30:00,40.1,30.4,29.85,SSW,213,4.0,4.0,68,0.00,,,0.00,Wunderground v.1.15,2013-01-20 11:30:00,
2013-01-20 06:35:00,40.1,30.4,29.85,SSW,198,4.0,11.0,68,0.00,,,0.00,Wunderground v.1.15,2013-01-20 11:35:00,
2013-01-20 06:40:00,40.2,30.5,29.85,SSW,206,4.0,5.0,68,0.00,,,0.00,Wunderground v.1.15,2013-01-20 11:40:00,
2013-01-20 06:50:00,40.0,30.3,29.85,SSW,198,5.0,9.0,68,0.00,,,0.00,Wunderground v.1.15,2013-01-20 11:50:00,
2013-01-20 06:55:00,39.8,30.1,29.85,SW,223,4.0,9.0,68,0.00,,,0.00,Wunderground v.1.15,2013-01-20 11:55:00,
2013-01-20 07:00:00,39.8,30.1,29.85,SSW,211,4.0,4.0,68,0.00,,,0.00,Wunderground v.1.15,2013-01-20 12:00:00,
2013-01-20 07:05:00,39.8,30.1,29.85,SW,234,4.0,4.0,68,0.00,,,0.00,Wunderground v.1.15,2013-01-20 12:05:00,
2013-01-20 07:10:00,39.7,30.4,29.85,SSW,205,4.0,4.0,69,0.00,,,0.00,Wunderground v.1.15,2013-01-20 12:10:00,
2013-01-20 07:20:00,39.6,30.3,29.85,SSW,209,4.0,4.0,69,0.00,,,0.00,Wunderground v.1.15,2013-01-20 12:20:00,
2013-01-20 07:25:00,39.5,30.2,29.85,SSW,205,5.0,5.0,69,0.00,,,0.00,Wunderground v.1.15,2013-01-20 12:25:00,
2013-01-20 07:30:00,39.5,30.2,29.85,South,181,4.0,4.0,69,0.00,,,0.00,Wunderground v.1.15,2013-01-20 12:30:00,
2013-01-20 07:40:00,39.4,30.1,29.85,South,190,4.0,5.0,69,0.00,,,0.00,Wunderground v.1.15,2013-01-20 12:40:00,
2013-01-20 07:45:00,39.5,30.2,29.85,SSW,213,4.0,5.0,69,0.00,,,0.00,Wunderground v.1.15,2013-01-20 12:45:00,
2013-01-20 07:50:00,39.6,30.3,29.85,SW,228,5.0,5.0,69,0.00,,,0.00,Wunderground v.1.15,2013-01-20 12:50:00,
2013-01-20 07:55:00,39.7,30.4,29.85,SW,217,4.0,5.0,69,0.00,,,0.00,Wunderground v.1.15,2013-01-20 12:55:00,
2013-01-20 08:05:00,40.1,30.4,29.85,SSW,192,4.0,6.0,68,0.00,,,0.00,Wunderground v.1.15,2013-01-20 13:05:00,
2013-01-20 08:10:00,40.3,30.6,29.85,SW,220,4.0,5.0,68,0.00,,,0.00,Wunderground v.1.15,2013-01-20 13:10:00,
2013-01-20 08:15:00,40.5,30.8,29.85,SW,217,4.0,6.0,68,0.00,,,0.00,Wunderground v.1.15,2013-01-20 13:15:00,
2013-01-20 08:20:00,40.6,30.5,29.85,SW,222,4.0,8.0,67,0.00,,,0.00,Wunderground v.1.15,2013-01-20 13:20:00,
2013-01-20 08:25:00,40.9,30.8,29.86,SW,219,4.0,10.0,67,0.00,,,0.00,Wunderground v.1.15,2013-01-20 13:25:00,
2013-01-20 08:35:00,41.5,31.0,29.85,SW,221,5.0,5.0,66,0.00,,,0.00,Wunderground v.1.15,2013-01-20 13:35:00,
2013-01-20 08:40:00,41.7,31.2,29.86,SSW,208,4.0,5.0,66,0.00,,,0.00,Wunderground v.1.15,2013-01-20 13:40:00,
2013-01-20 08:45:00,42.1,31.2,29.86,SSW,209,4.0,6.0,65,0.00,,,0.00,Wunderground v.1.15,2013-01-20 13:45:00,
2013-01-20 08:55:00,43.0,31.6,29.86,SSE,153,4.0,7.0,64,0.00,,,0.00,Wunderground v.1.15,2013-01-20 13:55:00,
2013-01-20 09:00:00,43.5,31.7,29.86,SSW,200,4.0,4.0,63,0.00,,,0.00,Wunderground v.1.15,2013-01-20 14:00:00,
2013-01-20 09:05:00,44.1,31.9,29.86,SW,227,5.0,5.0,62,0.00,,,0.00,Wunderground v.1.15,2013-01-20 14:05:00,
2013-01-20 09:15:00,45.0,32.3,29.86,SSW,203,7.0,7.0,61,0.00,,,0.00,Wunderground v.1.15,2013-01-20 14:15:00,
2013-01-20 09:20:00,45.4,32.3,29.86,SW,223,6.0,6.0,60,0.00,,,0.00,Wunderground v.1.15,2013-01-20 14:20:00,
2013-01-20 09:25:00,45.8,32.7,29.86,South,184,6.0,7.0,60,0.00,,,0.00,Wunderground v.1.15,2013-01-20 14:25:00,
2013-01-20 09:30:00,46.2,32.7,29.87,WSW,253,6.0,11.0,59,0.00,,,0.00,Wunderground v.1.15,2013-01-20 14:30:00,
2013-01-20 09:35:00,46.7,33.1,29.87,SSW,210,6.0,11.0,59,0.00,,,0.00,Wunderground v.1.15,2013-01-20 14:35:00,
2013-01-20 09:45:00,47.4,32.9,29.87,SW,218,7.0,9.0,57,0.00,,,0.00,Wunderground v.1.15,2013-01-20 14:45:00,
2013-01-20 09:50:00,47.7,33.2,29.86,WSW,237,8.0,8.0,57,0.00,,,0.00,Wunderground v.1.15,2013-01-20 14:50:00,
2013-01-20 09:55:00,48.1,33.6,29.87,SSW,199,7.0,8.0,57,0.00,,,0.00,Wunderground v.1.15,2013-01-20 14:55:00,
2013-01-20 10:00:00,48.5,33.5,29.87,SW,215,7.0,10.0,56,0.00,,,0.00,Wunderground v.1.15,2013-01-20 15:00:00,
2013-01-20 10:10:00,49.2,33.7,29.86,WSW,248,7.0,14.0,55,0.00,,,0.00,Wunderground v.1.15,2013-01-20 15:10:00,
2013-01-20 10:15:00,49.5,34.0,29.87,West,271,8.0,14.0,55,0.00,,,0.00,Wunderground v.1.15,2013-01-20 15:15:00,
2013-01-20 10:20:00,50.0,34.0,29.86,South,189,7.0,7.0,54,0.00,,,0.00,Wunderground v.1.15,2013-01-20 15:20:00,
2013-01-20 10:30:00,50.9,34.8,29.86,SW,223,5.0,6.0,54,0.00,,,0.00,Wunderground v.1.15,2013-01-20 15:30:00,
2013-01-20 10:35:00,51.2,34.6,29.86,SW,214,5.0,6.0,53,0.00,,,0.00,Wunderground v.1.15,2013-01-20 15:35:00,
2013-01-20 10:40:00,51.5,34.9,29.85,WSW,253,5.0,5.0,53,0.00,,,0.00,Wunderground v.1.15,2013-01-20 15:40:00,
2013-01-20 10:45:00,52.0,34.9,29.85,West,269,5.0,5.0,52,0.00,,,0.00,Wunderground v.1.15,2013-01-20 15:45:00,
2013-01-20 10:50:00,52.4,35.3,29.85,NW,317,3.0,7.0,52,0.00,,,0.00,Wunderground v.1.15,2013-01-20 15:50:00,
2013-01-20 11:00:00,52.9,36.2,29.85,SW,226,5.0,5.0,53,0.00,,,0.00,Wunderground v.1.15,2013-01-20 16:00:00,
2013-01-20 11:05:00,53.5,35.8,29.85,WSW,241,5.0,7.0,51,0.00,,,0.00,Wunderground v.1.15,2013-01-20 16:05:00,
2013-01-20 11:10:00,53.9,35.7,29.85,SW,234,6.0,13.0,50,0.00,,,0.00,Wunderground v.1.15,2013-01-20 16:10:00,
2013-01-20 11:15:00,53.8,35.6,29.84,WSW,245,6.0,13.0,50,0.00,,,0.00,Wunderground v.1.15,2013-01-20 16:15:00,
2013-01-20 11:20:00,54.2,35.4,29.84,SW,218,5.0,5.0,49,0.00,,,0.00,Wunderground v.1.15,2013-01-20 16:20:00,
2013-01-20 11:30:00,54.9,36.1,29.84,NW,325,5.0,9.0,49,0.00,,,0.00,Wunderground v.1.15,2013-01-20 16:30:00,
2013-01-20 11:35:00,54.9,35.6,29.84,South,188,6.0,10.0,48,0.00,,,0.00,Wunderground v.1.15,2013-01-20 16:35:00,
2013-01-20 11:40:00,54.9,35.6,29.84,SSW,205,7.0,10.0,48,0.00,,,0.00,Wunderground v.1.15,2013-01-20 16:40:00,
2013-01-20 11:45:00,54.8,35.5,29.84,West,277,8.0,10.0,48,0.00,,,0.00,Wunderground v.1.15,2013-01-20 16:45:00,
2013-01-20 11:50:00,54.8,35.5,29.84,West,266,9.0,9.0,48,0.00,,,0.00,Wunderground v.1.15,2013-01-20 16:50:00,
2013-01-20 12:00:00,55.2,35.3,29.83,WSW,257,7.0,7.0,47,0.00,,,0.00,Wunderground v.1.15,2013-01-20 17:00:00,
2013-01-20 12:05:00,55.5,35.6,29.83,SSW,211,6.0,7.0,47,0.00,,,0.00,Wunderground v.1.15,2013-01-20 17:05:00,
2013-01-20 12:10:00,55.4,35.5,29.82,WSW,256,7.0,7.0,47,0.00,,,0.00,Wunderground v.1.15,2013-01-20 17:10:00,
2013-01-20 12:15:00,55.8,35.9,29.82,WNW,302,7.0,9.0,47,0.00,,,0.00,Wunderground v.1.15,2013-01-20 17:15:00,
2013-01-20 12:20:00,55.5,35.6,29.82,West,275,7.0,15.0,47,0.00,,,0.00,Wunderground v.1.15,2013-01-20 17:20:00,
2013-01-20 12:30:00,55.9,35.9,29.82,West,271,7.0,7.0,47,0.00,,,0.00,Wunderground v.1.15,2013-01-20 17:30:00,
2013-01-20 12:35:00,56.1,35.6,29.82,West,266,6.0,7.0,46,0.00,,,0.00,Wunderground v.1.15,2013-01-20 17:35:00,
2013-01-20 12:40:00,56.3,36.3,29.82,WNW,295,6.0,6.0,47,0.00,,,0.00,Wunderground v.1.15,2013-01-20 17:40:00,
2013-01-20 12:50:00,56.4,35.9,29.82,SW,233,6.0,6.0,46,0.00,,,0.00,Wunderground v.1.15,2013-01-20 17:50:00,
2013-01-20 12:55:00,56.5,36.0,29.82,WSW,246,6.0,11.0,46,0.00,,,0.00,Wunderground v.1.15,2013-01-20 17:55:00,
2013-01-20 13:00:00,56.6,36.0,29.82,SW,214,6.0,12.0,46,0.00,,,0.00,Wunderground v.1.15,2013-01-20 18:00:00,
2013-01-20 13:05:00,57.1,36.5,29.82,WSW,239,6.0,12.0,46,0.00,,,0.00,Wunderground v.1.15,2013-01-20 18:05:00,
2013-01-20 13:10:00,57.0,35.9,29.82,WSW,246,6.0,6.0,45,0.00,,,0.00,Wunderground v.1.15,2013-01-20 18:10:00,
2013-01-20 13:20:00,57.8,35.4,29.82,WNW,298,5.0,5.0,43,0.00,,,0.00,Wunderground v.1.15,2013-01-20 18:20:00,
2013-01-20 13:25:00,57.9,31.8,29.82,NW,306,7.0,7.0,37,0.00,,,0.00,Wunderground v.1.15,2013-01-20 18:25:00,
2013-01-20 13:30:00,57.8,31.0,29.82,WNW,303,9.0,14.0,36,0.00,,,0.00,Wunderground v.1.15,2013-01-20 18:30:00,
2013-01-20 13:35:00,57.7,30.9,29.82,WNW,292,10.0,14.0,36,0.00,,,0.00,Wunderground v.1.15,2013-01-20 18:35:00,
2013-01-20 13:40:00,57.6,30.8,29.82,WNW,288,10.0,10.0,36,0.00,,,0.00,Wunderground v.1.15,2013-01-20 18:40:00,
2013-01-20 13:50:00,57.3,29.9,29.83,West,272,12.0,17.0,35,0.00,,,0.00,Wunderground v.1.15,2013-01-20 18:50:00,
2013-01-20 13:55:00,57.5,30.0,29.82,WNW,284,11.0,17.0,35,0.00,,,0.00,Wunderground v.1.15,2013-01-20 18:55:00,
2013-01-20 14:00:00,57.7,29.5,29.82,NNW,341,9.0,14.0,34,0.00,,,0.00,Wunderground v.1.15,2013-01-20 19:00:00,
2013-01-20 14:05:00,57.5,30.0,29.83,WNW,297,9.0,14.0,35,0.00,,,0.00,Wunderground v.1.15,2013-01-20 19:05:00,
2013-01-20 14:10:00,57.6,29.4,29.82,NW,319,10.0,10.0,34,0.00,,,0.00,Wunderground v.1.15,2013-01-20 19:10:00,
2013-01-20 14:20:00,57.3,29.9,29.83,North,355,11.0,11.0,35,0.00,,,0.00,Wunderground v.1.15,2013-01-20 19:20:00,
2013-01-20 14:25:00,57.5,29.3,29.83,NNW,337,10.0,11.0,34,0.00,,,0.00,Wunderground v.1.15,2013-01-20 19:25:00,
2013-01-20 14:30:00,57.5,29.3,29.84,WNW,291,10.0,18.0,34,0.00,,,0.00,Wunderground v.1.15,2013-01-20 19:30:00,
2013-01-20 14:35:00,57.5,29.3,29.84,NW,306,9.0,18.0,34,0.00,,,0.00,Wunderground v.1.15,2013-01-20 19:35:00,
2013-01-20 14:40:00,57.3,29.9,29.84,WNW,302,9.0,9.0,35,0.00,,,0.00,Wunderground v.1.15,2013-01-20 19:40:00,
2013-01-20 14:50:00,56.8,29.4,29.84,West,275,12.0,12.0,35,0.00,,,0.00,Wunderground v.1.15,2013-01-20 19:50:00,
2013-01-20 14:55:00,57.2,29.8,29.85,WNW,283,9.0,12.0,35,0.00,,,0.00,Wunderground v.1.15,2013-01-20 19:55:00,
2013-01-20 15:00:00,57.2,29.1,29.85,North,355,7.0,12.0,34,0.00,,,0.00,Wunderground v.1.15,2013-01-20 20:00:00,
2013-01-20 15:10:00,56.7,29.3,29.85,NNE,27,10.0,10.0,35,0.00,,,0.00,Wunderground v.1.15,2013-01-20 20:10:00,
2013-01-20 15:20:00,56.9,29.5,29.87,North,355,7.0,7.0,35,0.00,,,0.00,Wunderground v.1.15,2013-01-20 20:20:00,
2013-01-20 15:30:00,56.4,28.3,29.87,WNW,299,7.0,9.0,34,0.00,,,0.00,Wunderground v.1.15,2013-01-20 20:30:00,